HTMT

Details ICAO HTMT (MYW)
Name MTWARA
Region Tanzania
Timezone Africa/Dar_es_Salaam (UTC+3.0)
Plans Departing 1
Arriving 2
Stats Elevation 371 ft / 113 m (AMSL)
Location -10.337537° 40.182162°
Runways 2
Magnetic Variation 4.521° W
Sunrise 2018-05-23 03:29:30 UTC / 2018-05-23 06:29:30 Local
Sunset 2018-05-23 15:05:23 UTC / 2018-05-23 18:05:23 Local
Advertisement - Login to hide

Runways

ID Width Length Bearing (true) Bearing (mag) Surface Threshold Offset Overrun Length
01 98 ft / 30 m 7,451 ft / 2,271 m 3.85° 8.37° Asphalt 0 ft / 0 m 0 ft / 0 m
08 98 ft / 30 m 3,812 ft / 1,162 m 80.02° 84.54° Dirt 0 ft / 0 m 0 ft / 0 m
19 98 ft / 30 m 7,451 ft / 2,271 m 183.85° 188.37° Asphalt 0 ft / 0 m 0 ft / 0 m
26 98 ft / 30 m 3,812 ft / 1,162 m 260.02° 264.54° Dirt 0 ft / 0 m 0 ft / 0 m

Map

Weather


0- 5 10 15 20 25 30 35+ Temperature / ° C

Clouds and Precipitation
Forecast for 2018-05-23 00:00 UTC. Updated 3 hours ago

Ground ~20,000 ft ~40,000 ft Winds

METAR

HTMT 230200Z 17010KT 9999 FEW018 22/22 Q1016

TAF

Not found

Frequencies

Tower 118.10 MHz TWR
Warning: Do not use this data for real-world aviation or navigation. No guarantee of current accuracy is given.